When you browse on this site, cookies collect data to enhance your experience and personalize the content and advertising you see.
Visit our Privacy Policy to learn more. By continuing to use the site, you agree to this use of cookies and data.
  • In Germany
  • List of Countries
  • For 7 days
  • Water Temperature
  • Weather Map
  • Weather Widgets
  • user-avatar
    Login

    Hourly Weather Kabul

    Today, 23 January, Thursday

    Time Temperature Precipitation Wind Pressure Humidity
    00:00 -8°C° 0 mm 2 mps 609 mmHg 50%
    01:00 -8°C° 0 mm 2 mps 608 mmHg 49%
    02:00 -9°C° 0 mm 2 mps 608 mmHg 48%
    03:00 -9°C° 0 mm 2 mps 608 mmHg 47%
    04:00 -9°C° 0 mm 2 mps 607 mmHg 46%
    05:00 -13°C° 0 mm 3 mps 606 mmHg 52%
    06:00 -13°C° 0 mm 3 mps 606 mmHg 52%
    07:00 -13°C° 0 mm 3 mps 606 mmHg 52%
    08:00 -12°C° 0 mm 2 mps 606 mmHg 52%
    09:00 -10°C° 0 mm 2 mps 606 mmHg 54%
    10:00 -8°C° 0 mm 2 mps 606 mmHg 57%
    11:00 -6°C° 0 mm 2 mps 607 mmHg 60%
    12:00 -5°C° 0 mm 2 mps 606 mmHg 61%
    13:00 -5°C° 0 mm 2 mps 606 mmHg 62%
    14:00 -2°C° 0 mm 1 mps 605 mmHg 63%
    15:00 -3°C° 0 mm 1 mps 605 mmHg 65%
    16:00 -3°C° 0 mm 1 mps 604 mmHg 67%
    17:00 -4°C° 0 mm 1 mps 603 mmHg 68%
    18:00 -6°C° 0 mm 1 mps 604 mmHg 65%
    19:00 -6°C° 0 mm 1 mps 604 mmHg 63%
    20:00 -7°C° 0 mm 1 mps 604 mmHg 60%
    21:00 -7°C° 0 mm 1 mps 604 mmHg 59%
    22:00 -7°C° 0 mm 1 mps 604 mmHg 58%
    23:00 -8°C° 0 mm 2 mps 604 mmHg 58%

    Tomorrow, 24 January, Friday

    Time Temperature Precipitation Wind Pressure Humidity
    00:00 -8°C° 0 mm 2 mps 604 mmHg 56%
    01:00 -7°C° 0 mm 1 mps 604 mmHg 55%
    02:00 -7°C° 0 mm 1 mps 604 mmHg 54%
    03:00 -7°C° 0 mm 1 mps 603 mmHg 53%
    04:00 -8°C° 0 mm 1 mps 603 mmHg 53%
    05:00 -8°C° 0 mm 1 mps 602 mmHg 52%
    06:00 -8°C° 0 mm 2 mps 602 mmHg 52%
    07:00 -8°C° 0 mm 2 mps 603 mmHg 52%
    08:00 -7°C° 0 mm 2 mps 603 mmHg 53%
    09:00 -6°C° 0 mm 2 mps 603 mmHg 53%
    10:00 -2°C° 0 mm 1 mps 604 mmHg 54%
    11:00 -1°C° 0 mm 1 mps 604 mmHg 55%
    12:00 0°C° 0.1 mm 1 mps 604 mmHg 59%
    13:00 0°C° 0.1 mm 1 mps 604 mmHg 63%
    14:00 +1°C° 0.1 mm 1 mps 603 mmHg 67%
    15:00 +1°C° 0.1 mm 1 mps 603 mmHg 71%
    16:00 0°C° 0.1 mm 1 mps 603 mmHg 76%
    17:00 0°C° 0.1 mm 1 mps 603 mmHg 80%
    18:00 -1°C° 0 mm 1 mps 603 mmHg 80%
    19:00 -2°C° 0 mm 1 mps 603 mmHg 80%
    20:00 -3°C° 0 mm 1 mps 603 mmHg 80%
    21:00 -3°C° 0 mm 1 mps 604 mmHg 81%
    22:00 -3°C° 0 mm 1 mps 604 mmHg 81%
    23:00 -4°C° 0 mm 1 mps 604 mmHg 82%

    Day after tomorrow, 25 January, Saturday

    Time Temperature Precipitation Wind Pressure Humidity
    00:00 -6°C° 0 mm 2 mps 604 mmHg 83%
    01:00 -6°C° 0 mm 2 mps 604 mmHg 83%
    02:00 -6°C° 0 mm 2 mps 604 mmHg 84%
    03:00 -6°C° 0 mm 2 mps 604 mmHg 84%
    04:00 -6°C° 0 mm 2 mps 604 mmHg 84%
    05:00 -6°C° 0 mm 2 mps 604 mmHg 85%
    06:00 -6°C° 0 mm 2 mps 604 mmHg 84%
    07:00 -6°C° 0 mm 2 mps 605 mmHg 83%
    08:00 -6°C° 0 mm 2 mps 605 mmHg 82%
    09:00 -5°C° 0 mm 2 mps 605 mmHg 81%
    10:00 -4°C° 0 mm 2 mps 606 mmHg 79%
    11:00 -2°C° 0 mm 2 mps 606 mmHg 78%
    12:00 -2°C° 0 mm 2 mps 605 mmHg 79%
    13:00 -2°C° 0 mm 2 mps 605 mmHg 79%
    14:00 -1°C° 0 mm 2 mps 604 mmHg 80%
    15:00 0°C° 0 mm 1 mps 604 mmHg 80%
    16:00 -1°C° 0 mm 1 mps 604 mmHg 80%
    17:00 -2°C° 0 mm 1 mps 603 mmHg 80%
    18:00 -5°C° 0 mm 2 mps 604 mmHg 75%
    19:00 -5°C° 0 mm 2 mps 604 mmHg 70%
    20:00 -6°C° 0 mm 2 mps 605 mmHg 66%
    21:00 -6°C° 0 mm 2 mps 605 mmHg 63%
    22:00 -7°C° 0 mm 2 mps 605 mmHg 61%
    23:00 -7°C° 0 mm 2 mps 605 mmHg 59%

    26 January, Sunday

    Time Temperature Precipitation Wind Pressure Humidity
    00:00 -7°C° 0 mm 2 mps 605 mmHg 57%
    01:00 -8°C° 0 mm 2 mps 604 mmHg 56%
    02:00 -8°C° 0 mm 2 mps 604 mmHg 55%
    03:00 -8°C° 0 mm 2 mps 604 mmHg 53%
    04:00 -9°C° 0 mm 2 mps 603 mmHg 52%
    05:00 -9°C° 0 mm 2 mps 603 mmHg 51%
    06:00 -9°C° 0 mm 2 mps 603 mmHg 50%
    07:00 -9°C° 0 mm 2 mps 603 mmHg 49%
    08:00 -10°C° 0 mm 2 mps 603 mmHg 48%
    09:00 -8°C° 0 mm 2 mps 604 mmHg 49%
    10:00 -6°C° 0 mm 2 mps 604 mmHg 50%
    11:00 -3°C° 0 mm 1 mps 604 mmHg 52%
    12:00 -4°C° 0 mm 2 mps 604 mmHg 53%
    13:00 -3°C° 0 mm 2 mps 603 mmHg 55%
    14:00 -3°C° 0 mm 2 mps 603 mmHg 57%
    15:00 -2°C° 0 mm 1 mps 602 mmHg 59%
    16:00 -3°C° 0 mm 1 mps 602 mmHg 61%
    17:00 -4°C° 0 mm 1 mps 602 mmHg 63%
    18:00 -4°C° 0 mm 1 mps 602 mmHg 60%
    19:00 -6°C° 0 mm 1 mps 602 mmHg 57%
    20:00 -6°C° 0 mm 1 mps 603 mmHg 55%
    21:00 -6°C° 0 mm 1 mps 603 mmHg 54%
    22:00 -6°C° 0 mm 1 mps 603 mmHg 54%
    23:00 -6°C° 0 mm 1 mps 603 mmHg 53%

    27 January, Monday

    Time Temperature Precipitation Wind Pressure Humidity
    00:00 -6°C° 0 mm 1 mps 603 mmHg 54%
    01:00 -7°C° 0 mm 1 mps 602 mmHg 55%
    02:00 -7°C° 0 mm 1 mps 602 mmHg 55%
    03:00 -7°C° 0 mm 1 mps 602 mmHg 56%
    04:00 -7°C° 0 mm 1 mps 602 mmHg 57%
    05:00 -7°C° 0 mm 1 mps 602 mmHg 59%
    06:00 -6°C° 0 mm 1 mps 602 mmHg 60%
    07:00 -6°C° 0 mm 1 mps 602 mmHg 61%
    08:00 -6°C° 0 mm 1 mps 602 mmHg 62%
    09:00 -6°C° 0 mm 2 mps 603 mmHg 62%
    10:00 -5°C° 0 mm 2 mps 603 mmHg 63%
    11:00 -4°C° 0 mm 2 mps 603 mmHg 63%
    12:00 -3°C° 0.1 mm 2 mps 603 mmHg 66%
    13:00 -3°C° 0.1 mm 2 mps 602 mmHg 70%
    14:00 -2°C° 0.1 mm 2 mps 602 mmHg 74%
    15:00 -1°C° 0.1 mm 1 mps 602 mmHg 77%
    16:00 -1°C° 0.1 mm 1 mps 602 mmHg 80%
    17:00 -2°C° 0.1 mm 1 mps 602 mmHg 83%
    18:00 -2°C° 0 mm 1 mps 602 mmHg 82%
    19:00 -3°C° 0 mm 1 mps 603 mmHg 81%
    20:00 -3°C° 0 mm 1 mps 603 mmHg 79%
    21:00 -3°C° 0 mm 1 mps 604 mmHg 78%
    22:00 -4°C° 0 mm 1 mps 604 mmHg 77%
    23:00 -4°C° 0 mm 1 mps 604 mmHg 76%

    28 January, Tuesday

    Time Temperature Precipitation Wind Pressure Humidity
    00:00 -7°C° 0 mm 2 mps 604 mmHg 74%
    01:00 -7°C° 0 mm 2 mps 604 mmHg 72%
    02:00 -8°C° 0 mm 2 mps 603 mmHg 70%
    03:00 -8°C° 0 mm 2 mps 603 mmHg 68%
    04:00 -8°C° 0 mm 2 mps 603 mmHg 66%
    05:00 -9°C° 0 mm 2 mps 603 mmHg 64%
    06:00 -9°C° 0 mm 2 mps 604 mmHg 62%
    07:00 -9°C° 0 mm 2 mps 604 mmHg 60%
    08:00 -10°C° 0 mm 2 mps 604 mmHg 58%
    09:00 -8°C° 0 mm 2 mps 604 mmHg 58%
    10:00 -7°C° 0 mm 2 mps 604 mmHg 57%
    11:00 -6°C° 0 mm 2 mps 604 mmHg 57%
    12:00 -5°C° 0 mm 2 mps 604 mmHg 57%
    13:00 -4°C° 0 mm 2 mps 604 mmHg 57%
    14:00 -4°C° 0 mm 2 mps 603 mmHg 57%
    15:00 -5°C° 0 mm 2 mps 603 mmHg 59%
    16:00 -6°C° 0 mm 2 mps 603 mmHg 61%
    17:00 -7°C° 0 mm 2 mps 603 mmHg 63%
    18:00 -8°C° 0 mm 2 mps 603 mmHg 61%
    19:00 -9°C° 0 mm 2 mps 604 mmHg 60%
    20:00 -10°C° 0 mm 2 mps 604 mmHg 58%
    21:00 -10°C° 0 mm 2 mps 605 mmHg 57%
    22:00 -10°C° 0 mm 2 mps 605 mmHg 56%
    23:00 -12°C° 0 mm 2 mps 605 mmHg 55%
    Show more